Starlink 32889

operational
NORAD ID: 62961 Int'l Des: 2025-029 Owner: SPXS Country: US Constellation: starlink
LEOCIRCULAR

About Starlink 32889

Description loading...

Live Position

Loading 3D Globe...

Upcoming Passes

Altitude History

Altitude vs Time

uPlot chart will show altitude changes over time

Two-Line Element Set

1 62961U 25029P 25260.15045758 .00055538 00000-0 18725-2 0 9993
2 62961 53.1607 318.8374 0001317 107.6987 252.4157 15.30214496 34741
Epoch: Sep 17, 2025 • Age: 23 hours

Current Status

Altitude 494.1 km
Velocity 7.62 km/s
Sub-Earth Point -52.83°S, 163.61°W
Launch Date Feb 11, 2025
Age 0.5 years
Type internet

Technical Details

Classification Payload
Mass 730.00 kg
Dry Mass 700.00 kg
Total Mass 730.00 kg
Length 0.30 m
Diameter 4.10 m
Span 29.00 m
Shape Box + pan
Manufacturer SPXS
Bus Type Starlink V2M
Phase Status In Orbit
Owner/State SPXS/US

Large Constellations

Loading constellations...